Frederick, MD

11:05 PM EDT on September 19, 2017 (GMT -0400)
Frederick Municipal

Weather History for KFDK - February, 2013

Change the Weather History Date:

Saturday, February 16, 2013

  Actual Average (KHGR) Record (KHGR)
Temperature  
Mean Temperature 34 °F -  
Max Temperature 37 °F 41 °F 62 °F (2006)
Min Temperature 30 °F 25 °F 1 °F (2015)
Degree Days  
Heating Degree Days 32    
Moisture  
Dew Point 27 °F    
Average Humidity 81    
Maximum Humidity 100    
Minimum Humidity 60    
Precipitation  
Precipitation 0.00 in - - ()
Sea Level Pressure  
Sea Level Pressure 29.96 in    
Wind  
Wind Speed 4 mph (NNW)    
Max Wind Speed 17 mph    
Max Gust Speed 21 mph    
Visibility 6 miles    
Events Fog    
Averages and records for this station are not official NWS values.
T = Trace of Precipitation, MM = Missing Value Source: NWS Daily Summary

Daily Weather History Graph

Daily Weather History Graph

Search for Another Location

Airport or City:

Trip Planner

Search our weather history database for the weather conditions in past years. The results will help you decide how hot, cold, wet, or windy it might be!

Date:

Astronomy

Feb. 16, 2013 Rise Set
Actual Time 6:59 AM EST 5:47 PM EST
Civil Twilight 6:32 AM EST 6:15 PM EST
Nautical Twilight 6:01 AM EST 6:46 PM EST
Astronomical Twilight 5:29 AM EST 7:17 PM EST
Moon 10:13 AM EST (2/16) No Moon Set
Length of Visible Light 11h 42m
Length of Day
10h 47m
Waxing Crescent, 39% of the Moon is Illuminated
Feb 16
Waxing Crescent
Feb 17
First Quarter
Feb 25
Full
Mar 4
Last Quarter
Mar 11
New

Hourly Weather History & Observations

Time (EST) Temp. Windchill Dew Point Humidity Pressure Visibility Wind Dir Wind Speed Gust Speed Precip Events Conditions
12:10 AM 32.0 °F 28.7 °F 32.0 °F 100% 30.05 in 5.0 mi SSW 3.5 mph - N/A   Overcast
12:30 AM 32.0 °F - 32.0 °F 100% 30.04 in 5.0 mi Calm Calm - N/A   Overcast
12:50 AM 32.0 °F - 32.0 °F 100% 30.03 in 5.0 mi Calm Calm - N/A   Overcast
1:10 AM 32.0 °F - 32.0 °F 100% 30.02 in 4.0 mi Calm Calm - N/A   Overcast
1:30 AM 32.0 °F - 32.0 °F 100% 30.02 in 2.0 mi Calm Calm - N/A   Overcast
1:50 AM 32.0 °F - 32.0 °F 100% 30.01 in 3.0 mi Calm Calm - N/A   Overcast
2:10 AM 32.0 °F 28.7 °F 32.0 °F 100% 30.01 in 2.0 mi SW 3.5 mph - N/A   Overcast
2:30 AM 32.0 °F 28.7 °F 32.0 °F 100% 30.01 in 0.5 mi WSW 3.5 mph - N/A Fog Fog
2:50 AM 32.0 °F - 32.0 °F 100% 30.00 in 0.2 mi Calm Calm - N/A Fog Fog
3:10 AM 32.0 °F 28.7 °F 32.0 °F 100% 30.00 in 0.2 mi South 3.5 mph - N/A Fog Fog
3:30 AM 32.0 °F 27.5 °F 32.0 °F 100% 30.00 in 0.5 mi SSW 4.6 mph - N/A Fog Fog
3:50 AM 32.0 °F - 32.0 °F 100% 29.99 in 0.2 mi Calm Calm - N/A Fog Fog
4:10 AM 32.0 °F - 32.0 °F 100% 29.99 in 0.5 mi Calm Calm - N/A Fog Fog
4:30 AM 32.0 °F - 32.0 °F 100% 29.99 in 0.5 mi Calm Calm - N/A Fog Fog
4:50 AM 32.0 °F - 32.0 °F 100% 30.00 in 0.2 mi Calm Calm - N/A Fog Fog
5:10 AM 32.0 °F - 32.0 °F 100% 30.00 in 0.5 mi Calm Calm - N/A Fog Fog
5:30 AM 32.0 °F - 32.0 °F 100% 30.00 in 0.5 mi Calm Calm - N/A Fog Fog
5:45 AM 32.0 °F - 32.0 °F 100% 29.99 in 0.5 mi Calm Calm - N/A Fog Fog
7:55 AM 32.0 °F 26.4 °F 32.0 °F 100% 30.01 in 7.0 mi NE 5.8 mph - N/A   Mostly Cloudy
8:55 AM 33.8 °F 27.7 °F 33.8 °F 100% 30.00 in 5.0 mi NE 6.9 mph - N/A   Mostly Cloudy
10:45 AM 35.6 °F 28.0 °F 30.2 °F 81% 29.99 in 10.0 mi NNE 10.4 mph - N/A   Mostly Cloudy
11:45 AM 35.6 °F 29.9 °F 30.2 °F 81% 29.98 in 10.0 mi NE 6.9 mph - N/A   Mostly Cloudy
12:45 PM 35.6 °F 29.9 °F 30.2 °F 81% 29.94 in 10.0 mi North 6.9 mph - N/A   Overcast
1:50 PM 37.4 °F 31.4 °F 24.8 °F 60% 29.92 in 10.0 mi NNE 8.1 mph - N/A   Mostly Cloudy
2:50 PM 37.4 °F 32.1 °F 24.8 °F 60% 29.91 in 10.0 mi NNW 6.9 mph - N/A   Overcast
3:50 PM 35.6 °F 29.9 °F 24.8 °F 65% 29.90 in 10.0 mi North 6.9 mph - N/A   Overcast
4:45 PM 35.6 °F 29.9 °F - N/A% 29.92 in 10.0 mi North 6.9 mph - N/A   Overcast
5:50 PM 33.8 °F 27.0 °F 23.0 °F 65% 29.92 in 10.0 mi North 8.1 mph - N/A   Overcast
6:55 PM 33.8 °F 28.6 °F 21.2 °F 60% 29.92 in 10.0 mi NNW 5.8 mph - N/A   Clear
7:50 PM 32.0 °F 25.6 °F 21.2 °F 64% 29.92 in 10.0 mi NNW 6.9 mph - N/A   Clear
7:55 PM 32.0 °F 25.6 °F 21.2 °F 64% 29.92 in 10.0 mi NW 6.9 mph - N/A   Clear
8:15 PM 32.0 °F 23.0 °F 19.4 °F 60% 29.91 in 10.0 mi NW 11.5 mph - N/A   Scattered Clouds
8:35 PM 32.0 °F 24.8 °F 19.4 °F 60% 29.91 in 10.0 mi NW 8.1 mph - N/A   Mostly Cloudy
8:55 PM 32.0 °F 22.1 °F 19.4 °F 60% 29.91 in 10.0 mi NW 13.8 mph 17.3 mph N/A   Overcast
9:15 PM 32.0 °F 22.5 °F 19.4 °F 60% 29.90 in 10.0 mi NW 12.7 mph 19.6 mph N/A   Overcast
9:35 PM 32.0 °F 24.2 °F 19.4 °F 60% 29.91 in 10.0 mi NW 9.2 mph 17.3 mph N/A   Overcast
9:55 PM 32.0 °F 22.5 °F 19.4 °F 60% 29.89 in 10.0 mi NW 12.7 mph 17.3 mph N/A   Overcast
10:15 PM 32.0 °F 22.1 °F 19.4 °F 60% 29.89 in 10.0 mi NW 13.8 mph 18.4 mph N/A   Overcast
10:35 PM 32.0 °F 22.1 °F 19.4 °F 60% 29.89 in 10.0 mi NW 13.8 mph 18.4 mph N/A   Overcast
10:55 PM 30.2 °F 20.8 °F 19.4 °F 64% 29.89 in 10.0 mi NW 11.5 mph 17.3 mph N/A   Mostly Cloudy
11:15 PM 30.2 °F 20.2 °F 19.4 °F 64% 29.88 in 10.0 mi NW 12.7 mph 19.6 mph N/A   Clear
11:35 PM 30.2 °F 18.5 °F 19.4 °F 64% 29.88 in 10.0 mi NW 17.3 mph 20.7 mph N/A   Clear
11:55 PM 30.2 °F 18.9 °F 19.4 °F 64% 29.87 in 10.0 mi NW 16.1 mph - N/A   Clear